Regional Weather Roundup
Issued by NWS State College, PA

Home | Current Version | Previous Version | Graphics & Text | Print | Product List | Glossary Off
Versions: 1 2 3 4 5 6 7 8 9 10 11 12 13 14 15 16 17 18 19 20 21 22 23 24 25 26 27 28 29 30 31 32 33 34 35 36 37 38 39 40 41 42 43 44 45 46 47 48 49 50

000
ASUS41 KCTP 222210
RWRCTP

REGIONAL WEATHER ROUNDUP
NATIONAL WEATHER SERVICE STATE COLLEGE PA
600 PM EDT TUE JUL 22 2014

Note: "fair" indicates few or no clouds below 12,000 feet with no
significant weather and/or obstructions to visibility.

* = STATION THAT DOES NOT REPORT PRECIPITATION /E.G. RAIN...SNOW...ETC/
    THUNDER OR FOG.

PAZ002>004-007>009-013>016-020>023-029>032-222300-
WESTERN PENNSYLVANIA

CITY           SKY/WX    TMP DP  RH WIND       PRES   REMARKS
ERIE           SUNNY     83  66  56 NW6       30.02S
MEADVILLE      NOT AVBL
FRANKLIN*      SUNNY     82  66  57 S9        30.08S
NEW CASTLE       N/A     88  70  55 SW5       30.05F
BEAVER COUNTY  SUNNY     86  66  51 SW8       30.06F
BUTLER*        MOSUNNY   88  68  51 SW9       30.08S
PITTSBURGH INT MOSUNNY   87  66  49 W9        30.06F
PITTSBURGH     MOSUNNY   86  66  51 S9        30.06F
INDIANA*       SUNNY     86  68  54 W9        30.11S
LATROBE        MOSUNNY   88  70  55 W12       30.07F
WASHINGTON CO* SUNNY     86  70  58 SW6       30.07F
$$

PAZ004>006-010>012-017>019-024>028-033>037-041-042-045-046-049>053-222300-
CENTRAL PENNSYLVANIA

CITY           SKY/WX    TMP DP  RH WIND       PRES   REMARKS
BRADFORD       MOSUNNY   83  62  49 VRB3      30.10S
DUBOIS         SUNNY     83  67  58 SW8       30.09F
CLEARFIELD     PTSUNNY   83  69  62 VRB7      30.09S
JOHNSTOWN      CLOUDY    77  67  71 S7        30.14F
ALTOONA        PTSUNNY   81  70  69 S5        30.11S
STATE COLLEGE  MOSUNNY   84  68  58 SW8       30.09S
WILLIAMSPORT   PTSUNNY   85  68  56 S9        30.04S
SELINSGROVE    SUNNY     85  70  60 VRB7      30.06F
FT INDIANTOWN  SUNNY     87  69  55 S10       30.07F
CAPITAL CITY   SUNNY     85  68  56 S12       30.06F
HARRISBURG     MOSUNNY   87  69  54 S9        30.06S
YORK           SUNNY     83  71  67 S8        30.08F
$$

PAZ038>040-043-044-047-048-054-055-060>062-067>071-222300-
EASTERN PENNSYLVANIA

CITY           SKY/WX    TMP DP  RH WIND       PRES   REMARKS
SCRANTON       PTSUNNY   84  66  54 SW7       30.07F
MOUNT POCONO   MOSUNNY   80  65  59 SW12      30.14F
ALLENTOWN      PTSUNNY   86  68  54 S9        30.07F
QUAKERTOWN*    PTCLDY    84  68  58 S7        30.09S
READING        PTSUNNY   85  69  58 S9        30.06F
LANCASTER      MOSUNNY   83  69  62 SW12      30.07F
COATESVILLE    CLEAR     81  68  65 S6        30.11F
POTTSTOWN      MOSUNNY   84  68  58 S9        30.09F
BLUE BELL      MOSUNNY   86  70  58 SW10      30.07F
DOYLESTOWN     MOSUNNY   83  68  60 VRB6      30.07F
WILLOW GROVE   NOT AVBL
NORTH PHILA    MOSUNNY   86  65  49 S9        30.08F
PHILADELPHIA   MOSUNNY   86  63  45 S12       30.09S
$$



USA.gov is the U.S. government's official web portal to all federal, state and local government web resources and services.